Showing default

OPS 9313 (IDSCS 3), 2217

Orbit data source: Space-Track

OPS 9313 (IDSCS 3), 2217 is a payload satellite owned by USAF SSD (US) in GEO that was launched on Thu, 16 Jun 1966 UTC via a TITAN IIIC launch vehicle from the Air Force Eastern Test Range (AFETR). Payload-class satellites include a variety of spacecraft equipped with specific instruments for various scientific and technological missions. These include communications satellites like Starlink; space stations such as the ISS; scientific satellites like the Hubble; Earth observation satellites from companies like Planet Labs, Umbra, and HawkEye 360; GPS; miniature CubeSats for education and research; and military/defense satellites.

Not visible in the next 10 days
Identifier
2217, 1966-053D
Orbit
GEO
Country
Flag of USUS
Related business
Manufacturer
Philco-Ford WDL
Mission
Non-operational Defense Communications
Bus & Motor
IDCSP, Unknown motor
Mass
45 kg wet, 45 kg dry
Launch date (UTC)
1966-06-16 (59 years ago)
Launch vehicle
TITAN IIIC
Launch site
Air Force Eastern Test Range (AFETR)
Object type
Payload
Rocket body
Debris
Shape & HBR
Ico Poly, 0.5 m
Radar Cross Section
0.926 m², Medium (>0.1 m² and < 1m²)

Expand to show TLE details & history
Last TLE update: 1 day ago

TLE from 1 day ago
0 OPS 9313 (IDSCS 3)
1 02217U 66053D   25242.28098082 -.00000070  00000-0  00000-0 0  9992
2 02217   8.0923  46.8403 0036344 200.2500 159.7170  1.07754734136389
Epoch: 2025-08-30T06:44Z
TLE epoch observation values (Epoch: 2025-08-30T06:44:36.742Z)
Latitude
0.00001°
Longitude
-32.9336°
Altitude
33,947.222 km
Speed
3.139 km/s
True Right ascension
03h 07m 44s
True Declination
0° 00' 00"
Sunlit
Object was in daylight at epoch
Visualization orbit readout
Latitude
Unknown
Longitude
Unknown
Altitude
Unknown
Speed
Unknown
Apparent Right ascension
Unknown
Apparent Declination
Unknown
Sunlit
N/A
Visualization observer readout
Local Sidereal Time
09:23:58
Azimuth
Unknown
Elevation
Unknown
Doppler factor
Unknown
Orbital elements
Apogee altitude
33,958.365 km
Perigee altitude
33,666.228 km
Semi-major axis
40,190.434 km
Eccentricity
0.00363
Inclination
8.0923°
RAAN
46.8403°
Arg. of periapsis
200.25°
True anomaly
159.86076°
Mean anomaly
159.717°
Eccentric anomaly
159.78894°
Mean motion
0.26938 °/min
Orbital period
1,336.42 mins
BSTAR
0
Loading maneuver chart data...
Computing Atmospheric mass density...
Loading historical data...
Loading historical data...
Loading historical data...
Loading historical data...
Loading historical data...
Loading historical data...
Loading historical data...

Documentation

Showing up to 5 results
|